Orbital Elements at Epoch 2459200.5 (2020-Dec-17.0) TDB
Reference: JPL 22 (heliocentric ecliptic J2000)
Element | Value | Uncertainty (1-sigma) | Units |
e | .1341891357271369 | 4.6525e-08 | |
a | 2.413139488026424 | 1.2056e-08 | au |
q | 2.089322385739133 | 1.0969e-07 | au |
i | 7.362812044562002 | 4.2478e-06 | deg |
node | 100.5663083739655 | 3.8217e-05 | deg |
peri | 200.1308782349429 | 4.2302e-05 | deg |
M | 168.7129466739045 | 1.9593e-05 | deg |
tp | 2458558.820778548425 (2019-Mar-16.32077855) | 7.243e-05 | TDB |
period | 1369.216318467025 3.75 | 1.0261e-05 2.809e-08 | d yr |
n | .2629241231970243 | 1.9703e-09 | deg/d |
Q | 2.736956590313716 | 1.3674e-08 | au |
|
| | Orbit Determination Parameters
Additional Information
|